Year,Month,Day,Hour,Minute,Value (Times are PST for temperature in C)
2007,01,12,16,00,-1.70
2007,01,12,16,12,-2.20
2007,01,12,16,13,-2.20
2007,01,12,16,14,-2.20
2007,01,12,16,15,-2.30
2007,01,12,16,16,-2.30
2007,01,12,16,17,-2.30
2007,01,12,16,18,-2.40
2007,01,12,16,19,-2.40
2007,01,12,16,20,-2.40
2007,01,12,16,21,-2.50
2007,01,12,16,22,-2.50
2007,01,12,16,23,-2.50
2007,01,12,16,24,-2.60
2007,01,12,16,25,-2.60
2007,01,12,16,26,-2.60
2007,01,12,16,27,-2.60
2007,01,12,16,28,-2.70
2007,01,12,16,29,-2.70
2007,01,12,16,30,-2.70
2007,01,12,16,31,-2.80
2007,01,12,16,32,-2.80
2007,01,12,16,33,-2.80
2007,01,12,16,34,-2.80
2007,01,12,16,35,-2.80
2007,01,12,16,36,-2.90
2007,01,12,16,37,-2.90
2007,01,12,16,38,-2.90
2007,01,12,16,39,-2.90
2007,01,12,16,40,-3.00
2007,01,12,16,41,-3.00
2007,01,12,16,42,-3.00
2007,01,12,16,43,-3.00
2007,01,12,16,44,-3.10
2007,01,12,16,45,-3.10
2007,01,12,16,46,-3.10
2007,01,12,16,47,-3.10
2007,01,12,16,48,-3.10
2007,01,12,16,49,-3.10
2007,01,12,16,50,-3.20
2007,01,12,16,51,-3.20
2007,01,12,16,52,-3.20
2007,01,12,16,53,-3.20
2007,01,12,16,54,-3.20
2007,01,12,16,55,-3.20
2007,01,12,16,56,-3.20
2007,01,12,16,57,-3.20
2007,01,12,16,58,-3.30
2007,01,12,16,59,-3.30
2007,01,12,17,00,-3.30
2007,01,12,17,01,-3.30
2007,01,12,17,02,-3.30
2007,01,12,17,03,-3.30
2007,01,12,17,04,-3.30
2007,01,12,17,05,-3.30
2007,01,12,17,06,-3.30
2007,01,12,17,07,-3.30
2007,01,12,17,08,-3.30
2007,01,12,17,09,-3.30
2007,01,12,17,10,-3.30
2007,01,12,17,11,-3.40
2007,01,12,17,12,-3.40
2007,01,12,17,13,-3.40
2007,01,12,17,14,-3.40
2007,01,12,17,15,-3.40
2007,01,12,17,16,-3.30
2007,01,12,17,17,-3.30
2007,01,12,17,18,-3.30
2007,01,12,17,19,-3.30
2007,01,12,17,20,-3.30
2007,01,12,17,21,-3.30
2007,01,12,17,22,-3.30
2007,01,12,17,23,-3.30
2007,01,12,17,24,-3.30
2007,01,12,17,25,-3.30
2007,01,12,17,26,-3.30
2007,01,12,17,27,-3.30
2007,01,12,17,28,-3.30
2007,01,12,17,29,-3.30
2007,01,12,17,30,-3.30
2007,01,12,17,31,-3.30
2007,01,12,17,32,-3.30
2007,01,12,17,33,-3.30
2007,01,12,17,34,-3.30
2007,01,12,17,35,-3.30
2007,01,12,17,36,-3.30
2007,01,12,17,37,-3.30
2007,01,12,17,38,-3.30
2007,01,12,17,39,-3.30
2007,01,12,17,40,-3.30
2007,01,12,17,41,-3.30
2007,01,12,17,42,-3.30
2007,01,12,17,43,-3.30
2007,01,12,17,44,-3.30
2007,01,12,17,45,-3.30
2007,01,12,17,46,-3.30
2007,01,12,17,47,-3.30
2007,01,12,17,48,-3.30
2007,01,12,17,49,-3.30
2007,01,12,17,50,-3.30
2007,01,12,17,51,-3.30
2007,01,12,17,52,-3.30
2007,01,12,17,53,-3.30
2007,01,12,17,54,-3.30
2007,01,12,17,55,-3.30
2007,01,12,17,56,-3.30
2007,01,12,17,57,-3.30
2007,01,12,17,58,-3.30
2007,01,12,17,59,-3.30
2007,01,12,18,00,-3.30
2007,01,12,18,01,-3.30
2007,01,12,18,02,-3.30
2007,01,12,18,03,-3.30
2007,01,12,18,04,-3.30
2007,01,12,18,05,-3.30
2007,01,12,18,06,-3.20
2007,01,12,18,07,-3.20
2007,01,12,18,08,-3.20
2007,01,12,18,09,-3.20
2007,01,12,18,10,-3.20
2007,01,12,18,11,-3.20
2007,01,12,18,12,-3.20
2007,01,12,18,13,-3.20
2007,01,12,18,14,-3.20
2007,01,12,18,15,-3.20
2007,01,12,18,16,-3.20
2007,01,12,18,17,-3.20
2007,01,12,18,18,-3.20
2007,01,12,18,19,-3.10
2007,01,12,18,20,-3.10
2007,01,12,18,21,-3.10
2007,01,12,18,22,-3.10
2007,01,12,18,23,-3.10
2007,01,12,18,24,-3.10
2007,01,12,18,25,-3.10
2007,01,12,18,26,-3.10
2007,01,12,18,27,-3.10
2007,01,12,18,28,-3.10
2007,01,12,18,29,-3.10
2007,01,12,18,30,-3.10
2007,01,12,18,31,-3.10
2007,01,12,18,32,-3.10
2007,01,12,18,33,-3.10
2007,01,12,18,34,-3.10
2007,01,12,18,35,-3.10
2007,01,12,18,36,-3.10
2007,01,12,18,37,-3.10
2007,01,12,18,38,-3.10
2007,01,12,18,39,-3.10
2007,01,12,18,40,-3.10
2007,01,12,18,41,-3.10
2007,01,12,18,42,-3.10
2007,01,12,18,43,-3.10
2007,01,12,18,44,-3.10
2007,01,12,18,45,-3.10
2007,01,12,18,46,-3.10
2007,01,12,18,47,-3.10
2007,01,12,18,48,-3.10
2007,01,12,18,49,-3.10
2007,01,12,18,50,-3.10
2007,01,12,18,51,-3.10
2007,01,12,18,52,-3.10
2007,01,12,18,53,-3.00
2007,01,12,18,54,-3.00
2007,01,12,18,55,-3.00
2007,01,12,18,56,-3.00
2007,01,12,18,57,-2.90
2007,01,12,18,58,-2.90
2007,01,12,18,59,-2.90
2007,01,12,19,00,-2.90
2007,01,12,19,01,-2.90
2007,01,12,19,02,-2.90
2007,01,12,19,03,-2.90
2007,01,12,19,04,-2.90
2007,01,12,19,05,-2.90
2007,01,12,19,06,-2.90
2007,01,12,19,07,-2.90
2007,01,12,19,08,-2.90
2007,01,12,19,09,-2.90
2007,01,12,19,10,-2.90
2007,01,12,19,11,-2.90
2007,01,12,19,12,-2.90
2007,01,12,19,13,-2.90
2007,01,12,19,14,-2.90
2007,01,12,19,15,-2.90
2007,01,12,19,16,-2.90
2007,01,12,19,17,-2.90
2007,01,12,19,18,-2.90
2007,01,12,19,19,-2.90
2007,01,12,19,20,-2.90
2007,01,12,19,21,-2.90
2007,01,12,19,22,-2.90
2007,01,12,19,23,-2.90
2007,01,12,19,24,-2.90
2007,01,12,19,25,-2.90
2007,01,12,19,26,-2.90
2007,01,12,19,27,-2.90
2007,01,12,19,28,-2.90
2007,01,12,19,29,-2.80
2007,01,12,19,30,-2.80
2007,01,12,19,31,-2.80
2007,01,12,19,32,-2.80
2007,01,12,19,33,-2.80
2007,01,12,19,34,-2.80
2007,01,12,19,35,-2.80
2007,01,12,19,36,-2.80
2007,01,12,19,37,-2.80
2007,01,12,19,38,-2.80
2007,01,12,19,39,-2.80
2007,01,12,19,40,-2.80
2007,01,12,19,41,-2.80
2007,01,12,19,42,-2.80
2007,01,12,19,43,-2.80
2007,01,12,19,44,-2.80
2007,01,12,19,45,-2.80
2007,01,12,19,46,-2.80
2007,01,12,19,47,-2.80
2007,01,12,19,48,-2.80
2007,01,12,19,49,-2.80
2007,01,12,19,50,-2.80
2007,01,12,19,51,-2.90
2007,01,12,19,52,-2.90
2007,01,12,19,53,-2.90
2007,01,12,19,54,-2.90
2007,01,12,19,55,-2.90
2007,01,12,19,56,-2.90
2007,01,12,19,57,-2.90
2007,01,12,19,58,-2.90
2007,01,12,19,59,-2.90
2007,01,12,20,00,-2.90
2007,01,12,20,01,-2.90
2007,01,12,20,02,-2.90
2007,01,12,20,03,-2.90
2007,01,12,20,04,-2.90
2007,01,12,20,05,-2.90
2007,01,12,20,06,-2.90
2007,01,12,20,07,-2.90
2007,01,12,20,08,-2.90
2007,01,12,20,09,-2.90
2007,01,12,20,10,-2.90
2007,01,12,20,11,-2.90
2007,01,12,20,12,-2.90
2007,01,12,20,13,-2.90
2007,01,12,20,14,-2.90
2007,01,12,20,15,-2.90
2007,01,12,20,16,-2.90
2007,01,12,20,17,-2.90
2007,01,12,20,18,-2.90
2007,01,12,20,19,-2.90
2007,01,12,20,20,-2.90
2007,01,12,20,21,-2.90
2007,01,12,20,22,-2.90
2007,01,12,20,23,-2.90
2007,01,12,20,24,-2.90
2007,01,12,20,25,-2.90
2007,01,12,20,26,-2.90
2007,01,12,20,27,-2.90
2007,01,12,20,28,-2.90
2007,01,12,20,29,-2.90
2007,01,12,20,30,-2.90
2007,01,12,20,31,-2.90
2007,01,12,20,32,-2.90
2007,01,12,20,33,-2.90
2007,01,12,20,34,-3.00
2007,01,12,20,35,-2.90
2007,01,12,20,36,-3.00
2007,01,12,20,37,-3.00
2007,01,12,20,38,-3.00
2007,01,12,20,39,-3.00
2007,01,12,20,40,-3.00
2007,01,12,20,41,-3.00
2007,01,12,20,42,-3.00
2007,01,12,20,43,-3.00
2007,01,12,20,44,-3.00
2007,01,12,20,45,-3.00
2007,01,12,20,46,-3.00
2007,01,12,20,47,-3.00
2007,01,12,20,48,-3.00
2007,01,12,20,49,-3.00
2007,01,12,20,50,-3.00
2007,01,12,20,51,-3.10
2007,01,12,20,52,-3.00
2007,01,12,20,53,-3.10
2007,01,12,20,54,-3.10
2007,01,12,20,55,-3.10
2007,01,12,20,56,-3.10
2007,01,12,20,57,-3.10
2007,01,12,20,58,-3.10
2007,01,12,20,59,-3.10
2007,01,12,21,00,-3.10
2007,01,12,21,01,-3.10
2007,01,12,21,02,-3.10
2007,01,12,21,03,-3.10
2007,01,12,21,04,-3.10
2007,01,12,21,05,-3.20
2007,01,12,21,06,-3.20
2007,01,12,21,07,-3.20
2007,01,12,21,08,-3.20
2007,01,12,21,09,-3.20
2007,01,12,21,10,-3.20
2007,01,12,21,11,-3.20
2007,01,12,21,12,-3.20
2007,01,12,21,13,-3.20
2007,01,12,21,14,-3.20
2007,01,12,21,15,-3.30
2007,01,12,21,16,-3.30
2007,01,12,21,17,-3.30
2007,01,12,21,18,-3.30
2007,01,12,21,19,-3.30
2007,01,12,21,20,-3.30
2007,01,12,21,21,-3.30
2007,01,12,21,22,-3.30
2007,01,12,21,23,-3.30
2007,01,12,21,24,-3.30
2007,01,12,21,25,-3.30
2007,01,12,21,26,-3.40
2007,01,12,21,27,-3.40
2007,01,12,21,28,-3.40
2007,01,12,21,29,-3.40
2007,01,12,21,30,-3.40
2007,01,12,21,31,-3.50
2007,01,12,21,32,-3.50
2007,01,12,21,33,-3.50
2007,01,12,21,34,-3.60
2007,01,12,21,35,-3.60
2007,01,12,21,36,-3.60
2007,01,12,21,37,-3.60
2007,01,12,21,38,-3.60
2007,01,12,21,39,-3.70
2007,01,12,21,40,-3.70
2007,01,12,21,41,-3.70
2007,01,12,21,42,-3.70
2007,01,12,21,43,-3.70
2007,01,12,21,44,-3.70
2007,01,12,21,45,-3.70
2007,01,12,21,46,-3.70
2007,01,12,21,47,-3.80
2007,01,12,21,48,-3.80
2007,01,12,21,49,-3.80
2007,01,12,21,50,-3.80
2007,01,12,21,51,-3.80
2007,01,12,21,52,-3.70
2007,01,12,21,53,-3.70
2007,01,12,21,54,-3.70
2007,01,12,21,55,-3.70
2007,01,12,21,56,-3.70
2007,01,12,21,57,-3.70
2007,01,12,21,58,-3.70
2007,01,12,21,59,-3.60
2007,01,12,22,00,-3.60
2007,01,12,22,01,-3.60
2007,01,12,22,02,-3.60
2007,01,12,22,03,-3.60
2007,01,12,22,04,-3.60
2007,01,12,22,05,-3.60
2007,01,12,22,06,-3.60
2007,01,12,22,07,-3.60
2007,01,12,22,08,-3.60
2007,01,12,22,09,-3.60
2007,01,12,22,10,-3.60
2007,01,12,22,11,-3.60
2007,01,12,22,12,-3.60
2007,01,12,22,13,-3.60
2007,01,12,22,14,-3.60
2007,01,12,22,15,-3.60
2007,01,12,22,16,-3.60
2007,01,12,22,17,-3.60
2007,01,12,22,18,-3.60
2007,01,12,22,19,-3.50
2007,01,12,22,20,-3.50
2007,01,12,22,21,-3.50
2007,01,12,22,22,-3.50
2007,01,12,22,23,-3.50
2007,01,12,22,24,-3.50
2007,01,12,22,25,-3.50
2007,01,12,22,26,-3.50
2007,01,12,22,27,-3.50
2007,01,12,22,28,-3.50
2007,01,12,22,29,-3.50
2007,01,12,22,30,-3.50
2007,01,12,22,31,-3.50
2007,01,12,22,32,-3.50
2007,01,12,22,33,-3.50
2007,01,12,22,34,-3.50
2007,01,12,22,35,-3.50
2007,01,12,22,36,-3.50
2007,01,12,22,37,-3.50
2007,01,12,22,38,-3.50
2007,01,12,22,39,-3.50
2007,01,12,22,40,-3.50
2007,01,12,22,41,-3.50
2007,01,12,22,42,-3.50
2007,01,12,22,43,-3.50
2007,01,12,22,44,-3.50
2007,01,12,22,45,-3.50
2007,01,12,22,46,-3.50
2007,01,12,22,47,-3.50
2007,01,12,22,48,-3.50
2007,01,12,22,49,-3.40
2007,01,12,22,50,-3.50
2007,01,12,22,51,-3.40
2007,01,12,22,52,-3.40
2007,01,12,22,53,-3.40
2007,01,12,22,54,-3.40
2007,01,12,22,55,-3.40
2007,01,12,22,56,-3.40
2007,01,12,22,57,-3.40
2007,01,12,22,58,-3.40
2007,01,12,22,59,-3.40
2007,01,12,23,00,-3.40
2007,01,12,23,01,-3.40
2007,01,12,23,02,-3.40
2007,01,12,23,03,-3.40
2007,01,12,23,04,-3.40
2007,01,12,23,05,-3.40
2007,01,12,23,06,-3.40
2007,01,12,23,07,-3.40
2007,01,12,23,08,-3.40
2007,01,12,23,09,-3.40
2007,01,12,23,10,-3.40
2007,01,12,23,11,-3.40
2007,01,12,23,12,-3.40
2007,01,12,23,13,-3.40
2007,01,12,23,14,-3.40
2007,01,12,23,15,-3.40
2007,01,12,23,16,-3.40
2007,01,12,23,17,-3.40
2007,01,12,23,18,-3.40
2007,01,12,23,19,-3.40
2007,01,12,23,20,-3.40
2007,01,12,23,21,-3.40
2007,01,12,23,22,-3.40
2007,01,12,23,23,-3.40
2007,01,12,23,24,-3.40
2007,01,12,23,25,-3.40
2007,01,12,23,26,-3.40
2007,01,12,23,27,-3.40
2007,01,12,23,28,-3.40
2007,01,12,23,29,-3.40
2007,01,12,23,30,-3.40
2007,01,12,23,31,-3.40
2007,01,12,23,32,-3.30
2007,01,12,23,33,-3.30
2007,01,12,23,34,-3.30
2007,01,12,23,35,-3.30
2007,01,12,23,36,-3.30
2007,01,12,23,37,-3.30
2007,01,12,23,38,-3.30
2007,01,12,23,39,-3.30
2007,01,12,23,40,-3.30
2007,01,12,23,41,-3.30
2007,01,12,23,42,-3.20
2007,01,12,23,43,-3.30
2007,01,12,23,44,-3.20
2007,01,12,23,45,-3.20
2007,01,12,23,46,-3.20
2007,01,12,23,47,-3.20
2007,01,12,23,48,-3.20
2007,01,12,23,49,-3.20
2007,01,12,23,50,-3.20
2007,01,12,23,51,-3.20
2007,01,12,23,52,-3.20
2007,01,12,23,53,-3.20
2007,01,12,23,54,-3.20
2007,01,12,23,55,-3.20
2007,01,12,23,56,-3.20
2007,01,12,23,57,-3.20
2007,01,12,23,58,-3.20
2007,01,12,23,59,-3.20
